[[{"header":{"parameterUnit":"m.s-1","parameterCategory":1,"la1":30.2991,"la2":30.254,"lo1":-89.0895,"lo2":-89.0444,"dy":0.0017,"dx":0.0017,"nx":28,"ny":28,"refTime":"2025-01-01T03:00:00:Z","depth":0,"parameterNumber":2,"parameterNumberName":"U-component_of_WINDS"},"data":[0,0,0,0,0,0,0,0,0,0,0,0,0,0,0,0,0,0,0,0,0,0,0,0,0,0,0,0,0,0,0,0,0,0,0,0,0,0,0,0,0,0,0,0,0,0,0,0,0,0,0,0,0,0,0,0,0,0,-3.6107,-3.6108,0,-3.615,-3.6151,-3.6151,-3.5996,-3.5991,-3.5986,-3.5982,-3.6029,-3.6034,-3.604,0,0,0,0,0,0,0,0,0,0,0,0,0,-3.5891,-3.5896,-3.6107,-3.6108,-3.6108,-3.615,-3.6151,-3.6151,-3.5997,-3.5991,-3.5985,-3.598,-3.6027,-3.6034,-3.604,0,0,0,0,0,0,0,0,0,0,0,0,0,-3.5965,-3.5897,-3.6107,-3.6036,-3.603,-3.615,-3.6151,-3.6152,-3.5998,-3.5991,-3.5984,-3.5977,-3.6025,-3.6033,-3.6041,-3.6233,0,0,-3.6067,-3.6071,0,0,0,0,0,0,0,0,-3.5961,-3.5973,-3.6046,-3.6041,-3.6035,-3.606,-3.6091,-3.6179,-3.6,-3.601,-3.5982,-3.5974,-3.6045,-3.6052,-3.6075,-3.6235,-3.6237,-3.6068,-3.6073,-3.6076,-3.6079,0,0,0,0,0,0,0,-3.5956,-3.597,-3.6124,-3.6047,-3.604,-3.6002,-3.6005,-3.6107,-3.6066,-3.6009,-3.5997,-3.6005,-3.6041,-3.6067,-3.6075,-3.6238,-3.6067,-3.6075,-3.608,-3.6083,-3.6555,-3.6562,0,0,0,0,0,0,-3.596,-3.5967,-3.6123,-3.6125,-3.598,-3.6012,-3.6015,-3.6059,-3.6065,-3.6059,-3.601,-3.5997,-3.6056,-3.6065,-3.6076,-3.63,-3.6076,-3.6084,-3.6089,-3.6547,-3.6557,-3.6565,0,0,0,0,0,0,-3.5956,-3.5975,-3.6121,-3.6043,-3.6059,-3.6023,-3.6074,-3.6064,-3.609,-3.6066,-3.6058,-3.6045,-3.6051,-3.6064,-3.6194,-3.6299,-3.6088,-3.6096,-3.6539,-3.655,-3.6561,-3.675,0,0,0,0,0,0,-3.595,-3.5975,-3.6047,-3.6046,-3.6063,-3.6239,-3.608,-3.607,-3.6105,-3.6088,-3.6097,-3.6091,-3.6047,-3.6183,-3.6203,-3.6307,-3.6102,-3.6529,-3.6544,-3.6557,-3.6734,-3.6766,-3.6793,0,0,0,0,0,-3.5943,-3.61,-3.6052,-3.6072,-3.6153,-3.6246,-3.6256,-3.6201,-3.6114,-3.6186,-3.617,-3.6091,-3.6284,-3.6197,-3.6219,-3.6327,-3.6522,-3.654,-3.6556,-3.6721,-3.676,-3.6793,0,0,0,0,0,0,-3.6116,-3.6098,-3.6045,-3.6206,-3.6228,-3.6219,-3.6309,-3.6244,-3.6292,-3.6275,-3.6204,-3.6208,-3.635,-3.6351,-3.6255,-3.6511,-3.6388,-3.641,-3.6506,-3.6543,-3.6572,-3.657,-3.6109,0,0,0,0,0,-3.6173,-3.6249,-3.6229,-3.6373,-3.6387,-3.6347,-3.6385,-3.634,-3.636,-3.637,-3.6363,-3.6387,-3.6452,-3.6497,-3.6557,-3.6732,-3.6732,-3.6817,-3.6847,-3.6871,-3.6892,-3.6983,-3.7021,-3.662,-3.662,-3.662,0,0,-3.6291,-3.6291,-3.6343,-3.6408,-3.642,-3.65,-3.6356,-3.6447,-3.6506,-3.6384,-3.6506,-3.6502,-3.6523,-3.6677,-3.6744,-3.6682,-3.7002,-3.6893,-3.6913,-3.6919,-3.7005,-3.7043,-3.7076,-3.6631,-3.6629,-3.6628,0,0,-3.6548,-3.6555,-3.6675,-3.669,-3.6709,-3.6681,-3.671,-3.671,-3.6702,-3.6823,-3.6733,-3.6801,-3.6916,-3.6935,-3.696,-3.7221,-3.7149,-3.7242,-3.7398,-3.7488,-3.752,-3.7547,-3.764,-3.7674,-3.7262,-3.7262,-3.7262,0,-3.6693,-3.681,-3.6745,-3.6843,-3.6873,-3.6764,-3.6885,-3.6902,-3.6941,-3.6965,-3.6894,-3.7034,-3.7041,-3.7197,-3.726,-3.7284,-3.7314,-3.7241,-3.752,-3.7547,-3.7572,-3.766,-3.7695,-3.7273,-3.7272,-3.7271,-3.727,0,-3.6987,-3.7069,-3.7164,-3.7202,-3.7243,-3.7352,-3.7304,-3.7353,-3.7304,-3.7283,-3.7407,-3.7411,-3.7468,-3.7501,-3.7456,-3.7651,-3.7611,-3.7532,-3.7407,-3.7623,-3.7704,-3.7737,-3.7289,-3.7285,-3.7282,-3.7279,0,0,-3.7356,-3.7355,-3.7391,-3.7407,-3.7419,-3.7481,-3.7584,-3.7639,-3.7682,-3.7712,-3.7796,-3.7895,-3.782,-3.7848,-3.7803,-3.7882,-3.8087,-3.7792,-3.7791,-3.7847,-3.8302,-3.8363,-3.8403,-3.8039,-3.8045,-3.805,-3.83,0,-3.7608,-3.7784,-3.7728,-3.7906,-3.798,-3.7876,-3.7966,-3.7983,-3.7966,-3.8027,-3.8007,-3.8078,-3.7974,-3.799,-3.8064,-3.8047,-3.8178,-3.8028,-3.8118,-3.8122,-3.8117,-3.8445,-3.851,-3.8745,-3.8332,-3.8337,-3.8341,0,-3.7927,-3.7967,-3.8152,-3.815,-3.8179,-3.8261,-3.8305,-3.8364,-3.8381,-3.8363,-3.8393,-3.833,-3.843,-3.8304,-3.8441,-3.834,-3.8373,-3.837,-3.8378,-3.8385,-3.8245,-3.8461,-3.8819,-3.8855,-3.839,-3.8386,-3.8383,0,-3.8178,-3.8278,-3.8401,-3.8418,-3.8418,-3.8478,-3.8481,-3.849,-3.8526,-3.8565,-3.8587,-3.8638,-3.8666,-3.8707,-3.8659,-3.8571,-3.8803,-3.8673,-3.8791,-3.8792,-3.8846,-3.8843,-3.9214,-3.8866,-3.8866,-3.8865,-3.8864,0,-3.8465,-3.8583,-3.8514,-3.859,-3.8718,-3.8651,-3.878,-3.8771,-3.878,-3.8852,-3.8765,-3.8835,-3.8767,-3.8831,-3.8794,-3.8913,-3.8926,-3.8914,-3.8903,-3.8922,-3.8924,-3.8944,-3.8926,-3.8874,-3.8872,-3.8871,-3.8869,0,-3.8768,-3.8727,-3.8854,-3.8843,-3.8843,-3.8938,-3.8928,-3.8998,-3.8972,-3.9065,-3.9083,-3.9045,-3.9114,-3.907,-3.9141,-3.9116,-3.9271,-3.9237,-3.9266,-3.9257,-3.9377,-3.9367,-3.9775,-3.9825,-3.9445,-3.9448,-3.9451,0,-3.8955,-3.9043,-3.904,-3.9082,-3.909,-3.9158,-3.9194,-3.9131,-3.9172,-3.9196,-3.9263,-3.9325,-3.9371,-3.9487,-3.9466,-3.952,-3.9486,-3.9626,-3.9494,-3.951,-3.9488,-3.9484,-3.9492,-3.9653,-3.9657,-3.9661,-3.9664,0,-3.9291,-3.9266,-3.932,-3.9367,-3.9411,-3.9445,-3.9472,-3.9512,-3.9448,-3.9498,-3.9568,-3.9604,-3.9675,-3.9738,-3.9782,-3.9784,-3.9715,-3.9705,-3.9735,-3.9756,-3.9769,-3.9763,-3.9339,-3.9697,-3.9693,-3.9691,-3.9689,-3.9688,-3.9542,-3.9614,-3.9623,-3.9686,-3.9699,-3.9726,-3.979,-3.9772,-3.9829,-3.9881,-3.9841,-3.9924,-3.9936,-3.9988,-3.9999,-4.0063,-4.0006,-4.005,-4.0061,-4.0073,-4.0089,-3.9758,-4.007,-4.0069,-4.0068,-4.0068,-4.0067,0,-3.9873,-3.9873,-3.9931,-3.9971,-4.002,-3.9947,-3.9973,-4.0019,-4.0093,-4.011,-4.0156,-4.0236,-4.0295,-4.0278,-4.0331,-4.0385,-4.0354,-4.0401,-4.0397,-4.0398,-4.0137,-4.0106,-4.0425,-4.0425,-4.0425,-4.0425,-4.0425,-4.0425,-4.0051,-4.0169,-4.0145,-4.0268,-4.0266,-4.0346,-4.0367,-4.0391,-4.0404,-4.0496,-4.0544,-4.0532,-4.0535,-4.0587,-4.0638,-4.0631,-4.0654,-4.0714,-4.0695,-4.0452,-4.0417,-4.0383,-4.0353,-4.0719,-4.072,-4.0951,-4.0953,-4.0955]},{"header":{"parameterUnit":"m.s-1","parameterCategory":1,"la1":30.2991,"la2":30.254,"lo1":-89.0895,"lo2":-89.0444,"dy":0.0017,"dx":0.0017,"nx":28,"ny":28,"refTime":"2025-01-01T03:00:00:Z","depth":0,"parameterNumber":3,"parameterNumberName":"V-component_of_WINDS"},"data":[0,0,0,0,0,0,0,0,0,0,0,0,0,0,0,0,0,0,0,0,0,0,0,0,0,0,0,0,0,0,0,0,0,0,0,0,0,0,0,0,0,0,0,0,0,0,0,0,0,0,0,0,0,0,0,0,0,0,-3.2067,-3.2068,0,-3.2138,-3.2138,-3.2139,-3.2121,-3.2119,-3.2118,-3.2117,-3.2186,-3.2189,-3.2192,0,0,0,0,0,0,0,0,0,0,0,0,0,-3.1911,-3.1914,-3.2067,-3.2068,-3.2069,-3.2137,-3.2138,-3.2139,-3.2121,-3.2119,-3.2118,-3.2116,-3.2185,-3.2188,-3.2192,0,0,0,0,0,0,0,0,0,0,0,0,0,-3.198,-3.1915,-3.2067,-3.2068,-3.2069,-3.2137,-3.2138,-3.214,-3.2121,-3.2119,-3.2117,-3.2115,-3.2183,-3.2188,-3.2193,-3.2264,0,0,-3.2207,-3.2209,0,0,0,0,0,0,0,0,-3.1976,-3.1985,-3.2067,-3.2068,-3.2069,-3.2118,-3.2109,-3.2181,-3.2122,-3.2101,-3.2117,-3.2114,-3.2165,-3.2171,-3.2189,-3.2267,-3.227,-3.2207,-3.221,-3.2212,-3.2214,0,0,0,0,0,0,0,-3.1971,-3.1982,-3.2095,-3.2068,-3.2069,-3.2063,-3.2071,-3.2122,-3.2144,-3.2103,-3.2102,-3.211,-3.2165,-3.2184,-3.219,-3.2271,-3.2207,-3.2212,-3.2214,-3.2216,-3.2407,-3.2409,0,0,0,0,0,0,-3.1966,-3.1978,-3.2092,-3.2097,-3.2016,-3.2068,-3.2076,-3.2104,-3.2143,-3.2147,-3.2112,-3.2109,-3.2177,-3.2185,-3.2192,-3.2276,-3.2212,-3.2217,-3.2219,-3.2405,-3.2408,-3.241,0,0,0,0,0,0,-3.1963,-3.1976,-3.209,-3.2037,-3.2051,-3.2073,-3.2105,-3.2107,-3.2126,-3.215,-3.2154,-3.2128,-3.2176,-3.2186,-3.2245,-3.2278,-3.2219,-3.2223,-3.2402,-3.2406,-3.2409,-3.2444,0,0,0,0,0,0,-3.1958,-3.1975,-3.2004,-3.2038,-3.2054,-3.2143,-3.2107,-3.211,-3.2135,-3.2132,-3.2166,-3.217,-3.2175,-3.2239,-3.225,-3.2283,-3.2227,-3.2399,-3.2404,-3.2408,-3.244,-3.2449,-3.2456,0,0,0,0,0,-3.1953,-3.2011,-3.2005,-3.2019,-3.209,-3.2145,-3.2154,-3.216,-3.2138,-3.2165,-3.218,-3.2169,-3.2273,-3.2245,-3.2258,-3.2293,-3.2397,-3.2403,-3.2408,-3.2437,-3.2447,-3.2455,0,0,0,0,0,0,-3.1979,-3.2015,-3.201,-3.2081,-3.211,-3.2142,-3.2177,-3.217,-3.2206,-3.2201,-3.2206,-3.2214,-3.2274,-3.229,-3.2258,-3.2362,-3.2332,-3.2339,-3.235,-3.2359,-3.2367,-3.2361,-3.2231,0,0,0,0,0,-3.1993,-3.2036,-3.2065,-3.2125,-3.214,-3.2156,-3.218,-3.2182,-3.2212,-3.2224,-3.2243,-3.2272,-3.231,-3.2336,-3.2373,-3.2443,-3.2448,-3.2473,-3.2481,-3.2487,-3.2493,-3.2528,-3.2539,-3.2427,-3.2427,-3.2427,0,0,-3.2023,-3.2048,-3.2075,-3.2131,-3.2154,-3.2196,-3.2167,-3.2213,-3.2244,-3.223,-3.2288,-3.2303,-3.2335,-3.2399,-3.2428,-3.2414,-3.2525,-3.2493,-3.2498,-3.2501,-3.2534,-3.2545,-3.2554,-3.243,-3.243,-3.2429,0,0,-3.2098,-3.2123,-3.2174,-3.2197,-3.2232,-3.2242,-3.2254,-3.2287,-3.2297,-3.2354,-3.2344,-3.238,-3.2448,-3.247,-3.249,-3.2571,-3.2561,-3.2583,-3.2623,-3.2657,-3.2666,-3.2673,-3.27,-3.271,-3.259,-3.259,-3.259,0,-3.213,-3.2195,-3.2201,-3.2248,-3.2272,-3.2262,-3.2313,-3.2335,-3.2379,-3.2395,-3.2379,-3.2461,-3.2482,-3.255,-3.257,-3.2587,-3.26,-3.2579,-3.2664,-3.2672,-3.2679,-3.2705,-3.2715,-3.2592,-3.2592,-3.2592,-3.2592,0,-3.2231,-3.2276,-3.2313,-3.2357,-3.2385,-3.2434,-3.2445,-3.2473,-3.2471,-3.2482,-3.254,-3.2564,-3.2605,-3.2622,-3.2621,-3.2689,-3.2678,-3.2663,-3.2632,-3.2692,-3.2716,-3.2726,-3.2596,-3.2595,-3.2594,-3.2594,0,0,-3.2325,-3.2371,-3.2384,-3.2403,-3.244,-3.2474,-3.2521,-3.2562,-3.2584,-3.2615,-3.2653,-3.2709,-3.2694,-3.2717,-3.2719,-3.2749,-3.2809,-3.273,-3.273,-3.2742,-3.2882,-3.2892,-3.2904,-3.2803,-3.2805,-3.2806,-3.2879,0,-3.2402,-3.2486,-3.2492,-3.2567,-3.2607,-3.2598,-3.2638,-3.2664,-3.2675,-3.2709,-3.2721,-3.276,-3.2739,-3.2752,-3.2782,-3.2795,-3.2837,-3.279,-3.2836,-3.2837,-3.2827,-3.2917,-3.2928,-3.2996,-3.2888,-3.289,-3.2891,0,-3.2504,-3.2537,-3.2617,-3.2646,-3.2663,-3.27,-3.2736,-3.2769,-3.2797,-3.2803,-3.2828,-3.2825,-3.287,-3.2839,-3.2901,-3.2869,-3.2888,-3.2897,-3.2899,-3.2903,-3.2867,-3.2921,-3.3018,-3.3027,-3.2907,-3.2905,-3.2904,0,-3.2561,-3.2627,-3.2682,-3.2699,-3.2735,-3.276,-3.2776,-3.2803,-3.2826,-3.2857,-3.2872,-3.2908,-3.2927,-3.2954,-3.296,-3.2937,-3.3021,-3.299,-3.3025,-3.3025,-3.3042,-3.3041,-3.3142,-3.3057,-3.3057,-3.3057,-3.3057,0,-3.2646,-3.2694,-3.2709,-3.2743,-3.2795,-3.2801,-3.2852,-3.2866,-3.2889,-3.2924,-3.2918,-3.295,-3.2957,-3.299,-3.2994,-3.3043,-3.3053,-3.3057,-3.3057,-3.3057,-3.3056,-3.3068,-3.3063,-3.306,-3.3059,-3.3058,-3.3058,0,-3.2719,-3.2732,-3.2791,-3.282,-3.2828,-3.2865,-3.2889,-3.292,-3.2931,-3.2974,-3.2985,-3.3,-3.3039,-3.3047,-3.3093,-3.3096,-3.3153,-3.315,-3.3144,-3.3143,-3.3176,-3.3172,-3.3288,-3.3302,-3.321,-3.321,-3.3211,0,-3.2772,-3.2809,-3.2841,-3.2865,-3.2882,-3.292,-3.2943,-3.2949,-3.2973,-3.3007,-3.3033,-3.3071,-3.3102,-3.3163,-3.3177,-3.3212,-3.3208,-3.3246,-3.3213,-3.321,-3.3206,-3.3203,-3.3205,-3.3252,-3.3253,-3.3253,-3.3254,0,-3.2863,-3.2866,-3.2901,-3.2937,-3.2966,-3.2995,-3.3022,-3.3041,-3.305,-3.3077,-3.3117,-3.3141,-3.3187,-3.3223,-3.3257,-3.3272,-3.3264,-3.3264,-3.3274,-3.3273,-3.3267,-3.3268,-3.3159,-3.3262,-3.3261,-3.326,-3.326,-3.326,-3.2926,-3.2957,-3.2984,-3.3023,-3.3044,-3.3069,-3.3099,-3.3113,-3.3146,-3.3185,-3.3186,-3.3228,-3.3253,-3.3298,-3.3314,-3.3346,-3.3334,-3.3348,-3.3351,-3.3354,-3.3356,-3.3263,-3.3352,-3.3352,-3.3352,-3.3352,-3.3352,0,-3.3014,-3.3031,-3.3066,-3.3105,-3.3134,-3.3125,-3.3154,-3.3179,-3.3217,-3.3241,-3.3271,-3.3315,-3.335,-3.3367,-3.3401,-3.3423,-3.342,-3.3431,-3.3429,-3.3432,-3.3366,-3.3354,-3.3433,-3.3433,-3.3433,-3.3433,-3.3433,-3.3433,-3.3064,-3.3115,-3.3122,-3.3183,-3.3199,-3.3242,-3.3259,-3.3281,-3.33,-3.335,-3.3379,-3.339,-3.341,-3.3446,-3.3477,-3.348,-3.3492,-3.3505,-3.3507,-3.3445,-3.3437,-3.3429,-3.3417,-3.3508,-3.3508,-3.357,-3.357,-3.3571]}]]